TimeAKST,TemperatureF,Dew PointF,Humidity,Sea Level PressureIn,VisibilityMPH,Wind Direction,Wind SpeedMPH,Gust SpeedMPH,PrecipitationIn,Events,Conditions,WindDirDegrees,DateUTC
12:17 AM,33.8,32.0,93,29.67,5.0,NE,3.5,-,0.00,Snow,Light Snow,40,2012-12-07 09:17:00
12:43 AM,33.8,32.0,93,29.69,10.0,SW,3.5,-,0.00,,Overcast,230,2012-12-07 09:43:00
12:53 AM,33.1,32.0,96,29.70,10.0,Calm,Calm,-,0.00,,Overcast,0,2012-12-07 09:53:00
1:27 AM,33.8,30.2,87,29.71,10.0,Calm,Calm,-,N/A,,Overcast,0,2012-12-07 10:27:00
1:53 AM,33.1,32.0,96,29.73,10.0,Calm,Calm,-,N/A,,Overcast,0,2012-12-07 10:53:00
3:53 AM,30.0,30.0,100,29.76,10.0,Calm,Calm,-,N/A,,Mostly Cloudy,0,2012-12-07 12:53:00
4:53 AM,28.9,28.0,96,29.77,4.0,Calm,Calm,-,N/A,,Clear,0,2012-12-07 13:53:00
5:53 AM,30.0,28.9,96,29.78,10.0,Calm,Calm,-,N/A,,Scattered Clouds,0,2012-12-07 14:53:00
6:53 AM,30.0,28.0,92,29.80,8.0,Calm,Calm,-,N/A,,Partly Cloudy,0,2012-12-07 15:53:00
7:53 AM,28.9,27.0,92,29.81,10.0,Calm,Calm,-,N/A,,Scattered Clouds,0,2012-12-07 16:53:00
8:17 AM,28.4,28.4,100,29.82,2.5,Calm,Calm,-,N/A,,Scattered Clouds,0,2012-12-07 17:17:00
8:24 AM,28.4,26.6,93,29.82,9.0,Calm,Calm,-,N/A,,Scattered Clouds,0,2012-12-07 17:24:00
8:53 AM,28.0,27.0,96,29.84,7.0,Calm,Calm,-,N/A,,Scattered Clouds,0,2012-12-07 17:53:00
9:53 AM,32.0,32.0,100,29.86,10.0,Calm,Calm,-,N/A,,Mostly Cloudy,0,2012-12-07 18:53:00
10:53 AM,34.0,32.0,92,29.88,10.0,Calm,Calm,-,N/A,,Overcast,0,2012-12-07 19:53:00
11:53 AM,34.0,32.0,92,29.89,10.0,Calm,Calm,-,N/A,,Mostly Cloudy,0,2012-12-07 20:53:00
12:16 PM,33.8,33.8,100,29.89,3.0,Calm,Calm,-,0.01,Snow,Light Snow,0,2012-12-07 21:16:00
12:23 PM,33.8,33.8,100,29.90,2.0,Calm,Calm,-,0.01,Snow,Light Snow,0,2012-12-07 21:23:00
12:32 PM,33.8,33.8,100,29.90,7.0,Calm,Calm,-,0.01,Snow,Light Snow,0,2012-12-07 21:32:00
12:42 PM,35.6,33.8,93,29.90,10.0,Calm,Calm,-,0.01,,Scattered Clouds,0,2012-12-07 21:42:00
12:53 PM,35.1,33.1,92,29.91,10.0,Calm,Calm,-,0.01,,Mostly Cloudy,0,2012-12-07 21:53:00
1:53 PM,34.0,33.1,96,29.93,8.0,Calm,Calm,-,N/A,,Mostly Cloudy,0,2012-12-07 22:53:00
2:53 PM,33.1,33.1,100,29.95,2.0,Calm,Calm,-,0.02,Snow,Light Snow,0,2012-12-07 23:53:00
3:08 PM,33.8,33.8,100,29.94,1.8,Calm,Calm,-,0.01,Snow,Light Snow,0,2012-12-08 00:08:00
3:18 PM,33.8,32.0,93,29.94,3.0,Calm,Calm,-,0.02,Snow,Light Snow,0,2012-12-08 00:18:00
3:26 PM,33.8,32.0,93,29.95,9.0,Calm,Calm,-,0.02,Snow,Light Snow,0,2012-12-08 00:26:00
3:40 PM,33.8,33.8,100,29.95,9.0,Calm,Calm,-,0.02,,Overcast,0,2012-12-08 00:40:00
3:53 PM,33.1,32.0,96,29.96,10.0,Calm,Calm,-,0.02,,Mostly Cloudy,0,2012-12-08 00:53:00
4:05 PM,33.8,30.2,87,29.96,10.0,Calm,Calm,-,N/A,,Scattered Clouds,0,2012-12-08 01:05:00
4:28 PM,32.0,32.0,100,29.96,10.0,Calm,Calm,-,N/A,,Mostly Cloudy,0,2012-12-08 01:28:00
4:53 PM,33.1,32.0,96,29.97,10.0,Calm,Calm,-,N/A,,Mostly Cloudy,0,2012-12-08 01:53:00
5:00 PM,33.8,32.0,93,29.97,10.0,Calm,Calm,-,N/A,,Scattered Clouds,0,2012-12-08 02:00:00
5:53 PM,32.0,30.9,96,30.00,10.0,Calm,Calm,-,N/A,,Clear,0,2012-12-08 02:53:00
6:53 PM,32.0,30.0,92,30.02,10.0,Calm,Calm,-,N/A,,Clear,0,2012-12-08 03:53:00
7:18 PM,30.2,30.2,100,30.03,10.0,Calm,Calm,-,N/A,,Mostly Cloudy,0,2012-12-08 04:18:00
7:50 PM,30.2,28.4,93,30.04,10.0,Calm,Calm,-,N/A,,Scattered Clouds,0,2012-12-08 04:50:00
7:53 PM,30.0,28.9,96,30.04,10.0,Calm,Calm,-,N/A,,Scattered Clouds,0,2012-12-08 04:53:00
8:48 PM,28.4,26.6,93,30.06,10.0,Calm,Calm,-,N/A,,Mostly Cloudy,0,2012-12-08 05:48:00
8:53 PM,28.9,27.0,92,30.07,10.0,Calm,Calm,-,N/A,,Mostly Cloudy,0,2012-12-08 05:53:00
9:53 PM,28.9,28.0,96,30.09,10.0,Calm,Calm,-,N/A,,Overcast,0,2012-12-08 06:53:00
10:53 PM,30.0,28.0,92,30.10,10.0,Calm,Calm,-,N/A,,Overcast,0,2012-12-08 07:53:00
11:32 PM,30.2,28.4,93,30.10,10.0,Calm,Calm,-,N/A,,Scattered Clouds,0,2012-12-08 08:32:00
11:53 PM,28.9,27.0,92,30.11,10.0,Calm,Calm,-,N/A,,Clear,0,2012-12-08 08:53:00